User: anonymous   Login
Location: Unspecified
(0.0000°N, 0.0000°E)
Time: 20:49:08
(UTC+00:00)
Language:

Cosmos 2221 Rocket - Orbit

View from above orbital plane
View from above orbital plane
View from above satellite
View from above satellite

Ground track
Ground track

The orbit data is extracted from the following two-line orbital elements,

1 22237U 92080B   24056.90485097  .00000730  00000-0  95005-4 0  9997
2 22237  82.5149   2.9002 0020641 126.1963 234.1162 14.79179995684582
Epoch (UTC): 25 February 2024 21:42:59
Eccentricity: 0.0020641
inclination: 82.5149°
perigee height: 617 km
apogee height: 646 km
right ascension of ascending node: 2.9002°
argument of perigee: 126.1963°
revolutions per day: 14.79179995
mean anomaly at epoch: 234.1162°
orbit number at epoch: 68458

The dashed part of the orbit path shows where the satellite is in the earth's shadow,  

DLR